Theta_e
318 316 315 316 316 319 321 318 317 319 317 312 312 315 317 321 321 321 322 322 324 327 325 325 326 326 327 323 336 349 349 350 352 348 347 355 349 350 352 349 349 346 345 337 331 330 329 329 330 339 343 345 345 344 342 340 338 335 332 327 327 331 335 335 336 338 340 341 340 340 339 337 334 336 338 340 342 342 343 342 343 342 342 342 342 341 342 342 341 341 340 340 339 338 337 337 338
316 316 318 322 322 320 322 319 316 316 314 309 312 315 317 323 321 321 321 322 329 332 329 329 328 328 328 324 334 348 350 349 349 350 349 349 349 352 353 350 348 346 345 339 336 334 333 333 333 340 343 345 344 344 342 340 338 335 332 328 328 333 336 335 337 339 341 342 341 338 335 333 334 337 339 340 341 341 341 341 341 341 341 341 341 340 340 341 341 341 340 339 339 338 337 337 337
319 321 323 321 319 319 323 322 316 311 313 310 312 318 319 321 321 322 322 324 333 333 330 332 332 331 328 328 337 350 353 348 347 347 346 350 351 352 352 351 348 346 343 342 343 338 338 338 335 340 343 344 345 344 342 340 338 336 332 328 331 335 336 337 340 341 341 342 339 335 331 331 332 335 338 340 340 340 341 340 341 341 341 340 340 340 340 340 340 341 340 339 338 337 336 336 336
319 326 325 318 315 318 322 323 319 312 311 311 311 320 321 321 321 323 324 331 334 332 332 331 331 330 335 342 344 351 352 348 347 346 347 350 352 352 352 351 348 345 342 344 346 341 340 340 336 340 343 344 344 344 342 341 339 336 331 329 333 335 337 341 341 341 342 341 337 332 332 332 333 335 337 338 339 339 339 340 341 341 341 340 339 340 340 339 340 341 340 339 337 336 336 335 333
318 326 324 317 315 318 323 322 321 315 312 312 312 319 322 321 322 322 325 330 330 331 331 330 333 330 342 348 348 352 351 350 350 348 349 351 353 353 352 351 347 344 343 344 346 343 342 340 339 342 343 344 344 343 342 341 339 335 330 332 335 336 340 342 341 341 341 340 338 336 334 333 333 335 335 336 337 338 338 338 338 339 339 339 339 339 340 339 341 341 341 339 336 336 335 333 330
319 323 321 318 317 320 321 317 315 314 316 317 316 318 322 320 322 322 322 323 324 327 328 330 334 335 347 351 350 353 351 350 351 349 350 352 352 352 351 351 346 345 344 345 346 344 343 340 340 342 342 343 343 342 342 341 338 332 331 334 335 338 342 342 342 341 341 341 339 336 332 331 334 336 336 336 337 338 337 336 335 336 338 339 339 339 340 339 340 341 340 338 335 336 334 332 330
318 319 318 317 317 320 321 316 313 314 318 320 318 318 322 320 320 320 320 321 321 323 322 326 330 340 348 349 350 351 350 350 350 349 350 352 352 352 351 350 347 346 345 346 345 343 343 339 338 340 341 342 342 342 341 339 336 332 333 334 337 341 342 341 342 341 341 340 336 332 332 334 336 337 337 337 337 338 337 336 335 336 337 337 337 338 338 339 340 340 340 338 335 334 334 334 333
316 317 317 315 316 318 318 316 315 316 318 320 320 320 320 319 320 319 319 319 320 321 321 324 323 337 345 349 353 352 350 351 350 350 351 351 352 351 351 350 347 347 346 347 345 341 339 336 336 338 340 342 342 341 340 337 334 332 334 336 339 341 341 341 341 341 340 336 331 331 336 338 338 337 337 337 336 337 337 338 338 336 335 336 336 337 337 338 340 339 340 337 334 334 335 337 335
315 317 317 315 314 315 313 313 314 317 318 320 321 320 320 319 319 318 319 318 320 322 321 325 322 335 347 353 353 350 350 352 351 351 352 351 352 350 350 349 347 348 348 348 345 338 335 334 334 337 340 342 341 339 338 336 334 334 335 337 340 340 339 340 340 340 337 331 329 333 338 339 338 336 336 336 335 335 337 339 338 336 336 338 338 338 338 338 339 339 339 336 334 334 335 335 334
315 317 317 316 314 310 309 311 313 316 318 319 320 321 320 319 319 318 319 319 320 320 322 326 328 340 349 353 353 352 350 352 352 351 352 352 351 350 349 349 348 349 348 348 345 338 337 334 332 336 340 341 340 339 336 336 335 335 336 337 339 338 338 340 339 335 331 328 331 335 338 338 336 335 335 335 335 335 336 338 338 337 337 337 336 337 336 337 339 339 338 336 334 334 333 333 334
315 316 317 318 314 309 308 311 314 317 318 319 320 321 320 319 319 319 319 319 320 319 321 322 330 344 352 355 353 352 352 352 353 352 352 351 351 349 349 348 349 350 349 348 343 339 340 337 335 337 340 341 340 338 337 336 336 336 336 339 339 337 338 339 335 331 329 330 335 338 338 338 337 336 336 335 335 335 336 338 339 337 335 333 332 334 335 337 338 339 338 336 334 333 332 333 333
314 316 318 316 313 311 311 311 314 319 320 319 320 319 320 320 319 320 319 319 319 320 320 321 334 344 352 356 352 351 352 352 352 352 351 349 350 349 349 349 348 350 348 347 343 339 342 342 341 340 341 342 341 339 338 336 336 336 338 340 338 337 336 333 331 331 333 335 338 339 339 338 338 338 337 336 335 336 337 337 337 335 332 331 331 333 336 338 338 338 337 336 334 334 334 334 333
314 315 316 313 314 314 314 313 315 318 318 319 320 320 320 319 320 321 320 320 319 320 319 327 337 345 352 355 352 351 352 352 353 351 349 349 349 349 349 350 349 349 347 346 343 341 343 343 342 341 340 341 341 339 337 337 338 338 340 339 337 335 331 329 334 337 338 339 339 339 339 339 339 339 337 336 335 336 338 337 337 335 333 332 331 333 336 337 338 338 337 336 335 335 334 333 332
316 316 317 315 315 315 314 313 314 315 315 320 319 320 320 320 322 323 323 323 321 320 322 338 341 346 353 354 353 352 352 351 352 349 348 348 348 349 348 350 349 349 347 345 344 342 343 342 342 341 339 340 340 338 338 340 338 337 338 336 333 330 330 334 339 341 339 339 339 339 340 339 339 338 336 336 335 337 337 337 337 336 334 332 330 332 333 335 337 337 336 336 335 335 334 332 332
317 317 316 316 315 315 315 314 314 313 314 320 318 319 321 319 322 323 325 323 324 323 326 339 338 344 351 352 353 352 352 351 351 349 349 349 347 348 348 349 348 348 347 345 344 342 342 342 342 341 340 339 336 335 339 338 334 334 334 332 331 331 334 338 339 340 338 338 339 340 340 339 338 337 336 336 335 336 335 336 336 336 335 333 330 329 329 331 334 334 334 334 334 334 332 331 333
316 317 317 315 313 313 315 317 316 313 316 319 318 320 319 319 323 323 324 323 324 324 327 337 337 341 344 346 351 351 351 350 350 350 349 349 349 348 348 348 347 348 347 345 343 342 342 342 342 342 340 338 334 336 337 334 332 333 332 332 334 334 336 337 338 339 338 338 339 338 338 337 336 335 336 336 335 335 335 336 336 337 335 331 329 326 326 327 329 330 330 330 331 332 332 331 332
316 316 316 313 313 313 315 318 316 314 317 319 318 320 319 319 323 323 325 326 325 327 333 340 343 342 338 343 350 351 350 349 350 349 350 350 349 349 348 348 347 347 347 345 343 342 341 342 342 342 340 336 335 337 334 331 332 332 333 335 336 337 336 336 338 338 339 339 336 335 336 335 336 335 336 335 334 334 335 336 336 335 332 328 327 326 325 325 325 326 326 327 328 331 333 333 332
316 316 315 312 315 315 317 318 318 318 318 320 319 319 319 318 323 326 326 328 327 333 339 343 348 347 342 348 352 351 350 350 350 349 350 350 349 349 348 347 346 346 346 345 343 341 342 342 343 341 338 337 337 336 332 331 333 333 333 336 336 337 336 336 336 337 339 338 335 335 335 335 335 335 336 335 333 334 335 335 335 332 329 326 326 326 326 326 325 325 324 324 326 330 332 332 332
316 317 315 314 317 317 319 318 319 319 318 319 319 318 319 318 322 325 326 329 326 334 342 343 347 349 348 351 351 350 350 350 351 349 350 350 349 349 347 346 346 346 346 345 344 342 341 341 343 342 339 339 337 335 335 335 336 335 335 336 336 336 336 336 335 338 340 337 335 335 335 335 333 333 335 336 335 336 335 333 333 331 329 326 325 327 327 327 326 325 325 325 325 328 330 331 331
316 316 316 316 317 317 318 319 319 319 318 319 319 318 319 318 320 323 327 330 327 333 341 341 344 347 348 349 349 351 351 351 351 350 350 349 349 349 347 346 345 346 346 345 344 342 341 341 341 341 341 341 337 336 338 338 339 336 336 336 335 335 336 335 335 339 339 335 334 334 335 334 332 333 335 337 338 337 334 330 332 333 330 327 326 327 326 327 326 325 325 325 326 328 329 331 332
316 316 316 317 317 317 317 319 319 319 318 318 318 318 318 319 319 321 324 329 331 335 338 338 341 344 347 347 348 351 351 351 351 350 350 349 349 349 347 346 345 345 345 345 344 341 340 340 339 340 341 341 337 336 338 339 339 337 337 337 336 335 334 334 337 339 337 334 333 335 336 335 334 334 335 337 339 336 333 330 332 334 333 330 327 329 329 329 328 327 327 326 328 331 331 333 333
316 316 316 316 317 317 317 319 318 318 318 317 319 317 317 319 318 319 321 327 333 335 335 335 337 340 345 346 347 351 350 349 350 350 351 350 349 349 348 346 345 344 344 344 344 341 340 340 339 340 340 341 339 337 339 339 339 338 338 338 336 336 336 336 339 340 337 334 333 336 337 336 336 336 335 337 337 336 334 333 335 335 336 335 331 332 334 333 332 332 332 330 330 332 333 334 334
316 316 317 316 317 317 317 318 318 317 317 317 318 318 317 318 317 319 320 323 331 333 333 334 334 337 343 347 348 350 349 349 350 350 350 350 349 349 347 346 346 344 344 344 343 341 340 341 339 340 340 341 341 339 340 340 339 339 339 338 338 338 338 337 339 340 338 335 333 335 335 335 336 337 337 337 336 336 336 336 336 335 336 337 335 335 336 336 335 335 335 333 332 333 333 333 333
316 316 316 317 317 317 316 317 318 317 316 317 317 317 318 317 318 318 319 324 330 332 331 333 335 336 341 347 348 349 349 349 350 351 350 349 349 349 348 347 345 344 343 343 342 341 341 341 339 340 341 341 341 341 340 340 340 339 338 338 338 338 338 338 338 339 338 335 333 334 334 333 336 337 337 336 336 336 336 336 336 334 334 335 336 335 335 336 335 335 335 334 333 332 331 331 332
316 316 316 317 317 317 317 318 317 317 317 317 316 317 317 316 318 318 318 322 328 331 331 333 334 336 341 346 347 349 349 349 350 351 350 349 349 349 347 347 345 344 343 342 342 340 340 341 340 340 342 341 341 340 340 340 340 339 339 339 339 338 338 338 337 337 337 335 333 334 334 333 335 337 336 336 337 336 336 336 335 334 334 335 335 333 334 334 334 334 334 333 333 332 331 331 330
315 316 317 317 317 317 318 318 317 318 317 316 316 315 316 317 317 316 318 321 325 329 330 332 335 336 340 344 345 346 348 350 350 350 349 348 348 348 347 346 346 345 343 343 342 338 338 338 339 340 341 341 340 341 340 340 340 339 340 339 339 338 337 337 335 335 336 336 334 333 334 334 334 336 335 334 336 336 335 335 334 334 333 333 334 333 333 334 334 334 334 333 332 331 331 331 331
315 316 316 317 316 317 317 317 317 317 317 316 316 315 316 317 316 316 318 319 324 326 328 332 333 335 336 338 342 345 348 349 349 350 348 347 348 348 347 346 346 345 344 343 341 338 337 338 340 340 340 340 340 340 340 340 340 340 340 339 337 337 335 335 335 335 335 335 335 334 334 334 333 335 335 334 335 335 335 334 334 334 333 333 333 333 333 333 333 333 332 331 331 331 331 331 331
315 316 316 316 316 317 317 316 317 317 317 316 316 315 316 316 316 317 317 318 323 323 328 333 333 334 333 335 342 345 345 348 349 349 348 348 347 346 346 346 345 346 344 343 342 339 337 337 339 339 338 339 339 340 340 340 340 340 339 337 335 335 335 336 336 335 334 334 335 334 334 335 335 335 336 335 335 335 334 334 334 334 334 333 334 334 333 332 332 332 331 330 331 332 332 332 331
316 316 316 316 316 316 316 316 316 317 316 316 317 314 314 316 315 317 317 318 322 321 323 328 329 334 334 335 341 343 344 347 348 347 347 346 345 346 346 345 345 346 345 343 341 338 336 336 337 337 337 337 338 339 339 339 340 339 336 334 335 336 337 337 335 335 333 334 335 334 334 335 335 336 337 337 336 334 334 334 334 335 336 334 334 334 333 332 333 332 332 331 333 334 333 332 332
315 315 315 315 315 314 316 316 316 317 316 317 316 311 312 315 316 317 318 318 321 322 321 323 323 331 336 337 339 342 344 347 348 346 345 345 344 345 345 345 345 344 343 340 338 335 334 336 335 336 336 336 337 337 336 337 338 337 333 333 335 336 337 337 335 335 335 334 335 334 334 335 336 335 336 337 336 334 334 335 334 335 335 335 334 334 333 333 333 333 332 332 333 333 333 333 332
314 314 314 315 311 311 316 316 315 316 316 317 315 309 311 316 316 316 319 318 320 322 320 325 323 327 338 337 336 340 345 347 347 345 344 344 344 343 345 346 345 342 339 337 336 334 335 335 335 336 336 336 337 337 335 335 336 335 334 334 335 336 337 336 335 335 335 335 334 335 336 335 336 336 335 336 335 334 334 335 334 334 334 334 333 333 332 333 333 332 332 333 333 332 332 333 332
314 312 311 312 310 311 316 316 316 316 316 317 314 310 312 315 317 317 318 319 321 322 321 324 323 326 335 335 336 342 344 345 346 346 344 344 344 344 344 344 342 339 335 335 335 335 335 335 335 336 335 335 335 335 334 333 334 335 335 336 336 336 337 336 335 334 334 333 333 336 336 335 336 336 336 335 334 334 335 335 335 335 334 334 333 332 332 333 333 333 333 334 334 333 332 333 331
314 312 309 310 310 310 313 315 316 316 315 316 314 311 313 315 316 317 317 318 320 322 321 322 323 327 335 336 338 342 344 343 344 344 344 344 344 344 343 341 337 335 334 336 336 334 334 334 335 335 335 335 333 333 335 334 335 335 334 336 337 336 336 336 335 334 335 335 335 337 336 335 336 336 335 335 334 334 335 335 335 335 334 334 333 333 333 333 334 334 334 334 333 332 333 333 331
312 312 310 310 311 309 310 312 316 316 315 316 315 313 314 315 317 318 319 317 319 322 321 323 323 326 337 339 338 340 342 343 342 342 343 343 343 343 341 336 334 335 334 336 336 335 334 333 334 336 335 334 333 333 336 336 335 333 330 333 335 335 334 334 333 333 335 336 336 336 335 335 336 335 335 335 334 334 334 334 334 334 334 334 333 333 334 333 333 334 334 334 332 332 333 333 332
310 310 310 310 310 310 310 312 315 317 315 315 315 314 315 316 316 317 319 319 320 322 321 324 323 323 336 341 337 337 341 342 342 341 343 343 343 342 336 332 334 335 334 336 336 336 336 334 335 336 335 334 334 335 336 336 335 334 333 333 334 333 332 331 331 333 334 335 335 335 335 335 335 335 335 334 334 334 334 332 332 332 332 333 332 333 333 333 333 333 333 333 332 332 333 333 332
312 313 312 310 309 310 312 315 316 317 316 315 315 314 315 316 316 318 320 320 321 323 323 324 323 323 333 337 335 337 342 342 342 342 343 343 342 337 333 333 334 334 335 336 336 336 336 334 335 335 334 334 335 336 336 336 336 335 335 334 332 331 330 330 331 331 332 332 332 333 333 334 334 335 334 334 334 334 333 332 332 332 332 333 333 333 333 333 334 332 333 333 332 332 333 333 333
314 315 314 312 310 310 314 316 317 318 315 314 316 315 316 316 316 318 320 322 321 322 323 324 324 323 328 333 334 335 340 341 341 342 342 342 338 333 333 334 335 336 336 336 336 336 335 334 334 334 334 334 336 336 336 335 335 335 333 331 330 331 331 330 330 330 331 331 330 331 331 332 332 333 333 333 333 333 332 333 333 332 332 333 333 332 332 333 333 333 333 333 333 333 333 332 331
315 315 314 313 311 311 315 317 316 318 315 314 316 315 316 317 317 318 320 322 322 322 323 323 322 323 325 331 333 335 339 338 338 340 341 340 333 332 334 335 336 337 336 336 336 335 335 335 334 334 334 333 333 334 334 334 333 332 331 330 329 329 329 330 330 330 330 330 330 330 330 330 330 330 331 331 331 331 331 332 333 333 333 332 332 332 332 333 333 333 333 333 333 333 331 331 331
317 316 314 311 312 312 314 317 317 317 315 314 317 315 314 317 317 317 319 322 323 322 322 323 323 323 326 331 333 336 339 337 337 340 341 337 331 332 334 335 336 335 335 335 335 334 335 336 334 333 333 330 330 332 333 332 331 330 330 330 328 328 329 329 329 328 328 328 329 329 329 329 329 328 328 329 329 329 330 330 330 331 331 331 331 331 332 333 332 332 332 332 332 331 330 330 331
318 317 313 311 314 312 310 315 319 318 317 317 317 316 316 318 318 318 319 321 324 324 322 322 322 323 329 332 331 333 338 338 338 341 339 333 331 332 333 336 335 335 335 335 335 336 335 335 334 333 332 330 332 332 332 331 331 331 331 330 330 328 327 325 325 325 325 326 328 328 328 328 327 327 326 326 327 328 329 329 328 329 330 330 329 329 331 332 331 331 332 332 331 331 330 329 330
317 318 315 313 314 313 312 316 318 318 318 320 318 314 315 318 318 318 319 320 324 323 323 323 322 325 331 332 331 334 338 340 341 336 332 332 332 332 334 335 335 335 336 336 336 336 335 335 333 332 332 333 333 331 332 332 332 332 331 330 329 327 324 324 324 324 324 325 326 327 328 327 326 326 326 326 327 328 328 328 328 328 329 328 328 328 329 330 330 330 331 331 330 331 330 329 330
314 316 317 315 315 315 315 317 316 314 314 318 318 311 311 315 318 319 319 321 324 324 325 324 322 326 330 330 332 335 338 338 335 330 330 331 331 332 334 335 335 335 336 336 336 336 336 335 332 332 333 333 331 330 332 332 333 333 331 329 327 325 325 326 325 323 323 324 325 326 327 327 326 325 326 326 327 327 328 327 327 327 327 327 327 328 328 328 329 329 330 329 329 331 330 329 329
311 314 316 316 316 315 316 317 314 311 313 320 320 313 311 313 316 319 319 320 325 325 325 324 324 328 331 332 332 333 337 335 331 329 329 330 331 332 333 334 334 335 336 336 335 336 336 334 332 333 334 332 330 330 331 331 333 333 330 327 326 326 327 327 326 324 323 323 324 325 326 326 326 325 325 325 326 327 327 327 327 327 326 326 326 327 327 327 328 329 330 329 329 330 329 329 330
311 314 316 315 314 315 316 315 313 312 315 319 320 316 312 310 314 319 319 319 324 326 327 326 326 331 332 331 331 335 338 337 333 330 329 329 331 331 332 332 334 334 335 335 334 335 333 333 334 334 333 331 329 328 328 330 332 332 329 327 327 328 328 327 326 324 323 322 322 323 325 325 325 325 325 325 325 326 326 326 326 326 325 325 326 326 327 328 328 329 330 329 330 330 329 329 329
314 315 316 316 315 315 316 315 314 315 316 313 315 316 313 310 313 319 320 320 322 327 328 328 329 331 331 329 331 334 336 336 335 334 332 330 330 330 330 332 333 333 334 334 334 334 332 332 334 334 333 331 327 325 327 330 331 329 328 329 329 329 328 326 325 324 323 322 322 323 325 326 325 324 324 325 325 325 325 325 325 325 324 323 325 326 327 327 328 328 329 330 330 329 329 330 329
316 315 316 317 316 315 316 317 313 314 315 312 313 316 315 312 313 318 320 320 322 327 328 327 329 331 331 331 333 334 335 334 336 336 331 330 330 329 330 332 333 333 334 333 333 333 332 331 333 334 334 331 326 325 328 331 330 329 329 330 329 327 326 325 324 323 324 324 324 323 324 325 325 325 324 324 325 325 324 324 324 323 323 324 324 325 326 326 326 326 327 329 330 330 330 330 329
316 316 316 317 318 316 315 316 313 312 314 312 312 315 316 314 313 316 319 321 324 326 326 328 330 328 330 333 332 333 335 333 334 334 332 331 330 328 331 333 333 333 333 332 332 334 333 333 335 335 333 332 329 328 330 331 330 330 330 329 326 325 324 324 324 324 324 324 323 323 324 325 325 324 323 323 323 323 322 322 322 323 323 324 324 323 324 324 324 325 326 327 328 329 329 329 328
315 317 316 315 316 314 313 312 313 314 314 313 313 314 315 314 314 318 322 324 324 325 328 333 333 329 331 334 332 332 335 334 332 333 334 333 331 330 332 333 334 333 333 333 333 334 335 335 335 334 333 332 331 332 332 331 330 331 330 327 325 324 324 324 324 324 323 323 323 324 325 324 324 322 321 321 322 321 320 320 323 324 324 323 322 322 321 322 322 323 324 325 326 327 327 327 327
316 315 314 314 314 313 313 312 313 314 313 313 314 314 315 315 318 323 326 326 327 326 330 333 332 331 332 334 332 333 336 336 333 334 334 331 331 332 332 332 334 334 333 333 333 333 334 334 334 334 333 332 331 333 333 331 330 330 329 327 326 325 324 324 324 324 323 323 323 325 325 324 322 321 320 321 321 321 321 320 322 323 323 323 322 321 320 320 321 322 322 323 324 325 325 324 324
314 313 311 314 315 315 315 314 313 313 312 312 314 315 317 317 321 326 327 327 329 327 327 329 329 331 332 333 333 332 333 335 335 334 331 329 330 332 331 331 334 334 333 334 333 334 335 334 334 334 334 333 333 333 332 330 329 328 327 327 326 325 324 324 324 324 323 322 323 324 325 324 321 320 320 319 320 320 320 321 320 321 320 321 321 320 318 318 319 320 320 320 320 320 321 322 321
314 314 314 314 315 315 315 313 313 313 312 313 314 317 319 319 323 327 327 327 328 327 326 326 327 330 330 330 332 334 334 334 335 332 329 330 330 330 331 331 333 334 334 334 334 334 335 334 334 335 335 335 333 332 331 330 328 327 327 327 326 325 324 324 324 324 323 321 322 323 323 322 320 319 319 319 318 319 319 319 320 319 320 320 319 319 317 317 318 318 317 318 318 317 318 319 318
316 314 312 313 315 316 314 315 315 314 313 313 313 316 321 324 325 326 326 325 326 325 326 326 327 329 330 330 332 333 334 335 334 330 328 329 330 329 329 330 331 333 333 332 332 333 334 335 335 335 334 334 333 332 331 329 328 328 327 326 326 326 324 323 323 322 321 321 322 322 322 322 320 319 319 318 318 317 317 317 318 318 319 318 319 318 317 317 317 316 315 316 317 317 316 317 317
318 314 310 313 318 317 315 316 317 315 314 314 315 320 323 322 323 326 326 325 325 325 328 329 328 329 331 333 332 331 334 334 330 330 329 330 330 329 328 328 329 330 330 330 330 331 332 333 334 335 334 334 334 333 332 330 329 329 329 327 326 326 324 324 323 322 321 321 322 322 321 320 319 319 319 318 317 317 316 316 317 317 317 317 318 318 317 317 315 315 315 315 315 316 316 317 317
316 313 313 315 319 319 317 317 316 317 316 313 314 322 324 320 320 326 325 325 327 328 330 331 330 329 330 333 333 333 334 331 329 331 330 330 331 328 328 329 328 328 328 327 327 329 330 330 333 334 334 334 333 332 331 330 329 329 329 328 326 325 325 323 323 322 321 321 321 321 320 319 319 319 319 318 318 317 316 316 316 317 317 317 317 317 316 316 316 316 316 315 316 316 316 317 317
315 316 316 317 319 318 316 315 316 317 317 315 312 314 320 319 320 326 327 327 330 329 330 331 329 330 330 331 333 334 331 329 330 329 327 329 330 329 329 330 329 328 328 327 325 326 329 331 332 332 332 332 331 330 330 329 329 329 329 329 327 326 325 323 323 322 322 321 321 321 321 320 319 319 319 319 318 318 317 317 317 317 317 317 317 316 316 316 316 316 316 315 315 316 316 316 316
315 316 316 317 318 317 318 319 316 314 316 317 312 311 322 326 322 327 331 330 331 330 331 330 329 331 331 331 332 332 329 329 331 330 328 330 331 331 331 330 329 328 328 328 326 326 328 330 330 331 330 329 329 329 328 329 329 330 330 330 329 327 324 323 324 323 322 321 321 321 321 320 319 320 319 319 319 319 318 317 317 317 317 318 317 317 316 317 317 317 316 316 315 316 316 316 316
314 314 313 315 316 316 320 321 315 312 314 315 313 316 326 331 327 328 331 330 330 331 331 330 329 330 330 330 330 330 329 330 332 332 331 330 331 332 332 331 331 330 329 329 328 329 330 330 329 330 329 328 328 329 329 329 330 330 331 331 329 328 325 323 324 323 322 321 321 320 320 320 320 320 320 319 319 319 318 318 317 317 318 318 318 318 318 318 317 317 317 316 315 315 315 316 316
314 313 312 314 315 314 316 316 313 312 313 314 316 321 327 329 328 328 329 329 330 330 330 329 329 330 330 329 328 328 329 329 331 331 327 327 330 331 331 330 330 330 330 329 329 330 330 328 328 329 329 329 329 329 329 330 331 331 331 331 329 327 325 322 323 322 321 321 321 320 320 320 320 319 319 319 318 318 319 318 318 318 318 319 319 319 318 318 317 317 317 317 316 316 316 315 315
Wind_Speed
10 9 7 7 8 9 8 6 4 4 5 7 9 8 11 14 14 15 7 2 2 2 4 2 1 2 2 6 5 16 14 11 8 5 4 7 15 21 27 28 26 26 26 25 25 24 21 20 20 21 21 21 21 21 21 21 23 23 22 21 21 22 22 22 20 18 17 16 15 14 15 15 16 16 15 15 14 13 13 14 13 12 12 11 10 10 11 11 11 11 12 12 11 11 11 10 9
9 9 8 9 10 8 4 5 5 5 7 8 8 10 12 13 16 14 6 3 4 5 4 3 3 2 2 8 4 12 13 13 11 9 9 15 20 22 26 25 23 25 24 24 24 22 20 19 20 21 21 21 21 21 22 22 23 23 22 21 22 24 23 21 19 18 17 15 14 14 14 14 15 15 15 15 13 13 14 13 12 11 11 11 10 10 10 10 10 11 11 10 10 10 10 10 9
11 10 10 9 9 8 4 4 6 6 8 8 8 11 13 14 13 7 5 2 7 9 3 2 2 2 2 2 5 10 10 11 13 10 10 18 18 17 24 24 24 24 24 23 20 20 18 18 21 21 22 22 22 22 22 22 23 23 21 22 24 24 23 20 18 17 16 14 13 13 14 14 15 15 15 15 14 14 14 13 12 12 11 11 10 10 10 10 10 10 10 9 9 10 9 9 8
12 12 12 9 6 6 5 5 6 7 8 7 8 10 13 16 10 3 2 5 8 5 2 1 2 1 2 6 8 10 10 9 11 9 8 15 18 20 24 24 24 23 23 21 19 19 17 18 21 21 22 22 22 22 22 22 22 22 22 24 25 24 22 19 18 17 15 14 13 13 13 13 14 14 14 14 14 15 14 13 13 13 12 11 10 10 10 10 10 9 9 8 8 8 8 8 9
12 13 13 10 5 3 4 5 6 8 8 9 9 5 5 7 1 6 8 6 3 1 1 1 2 4 8 11 6 5 8 7 11 11 10 18 23 25 24 23 23 23 21 20 19 19 18 20 22 22 23 22 22 22 22 23 22 22 23 25 25 23 20 18 17 16 15 14 13 12 12 12 13 13 14 13 14 13 12 12 11 12 12 11 11 11 11 10 9 9 8 8 7 8 8 9 10
12 13 12 11 6 5 4 6 7 8 10 11 10 9 7 7 9 8 9 3 1 1 3 3 2 6 10 10 9 7 8 5 9 9 13 23 27 25 24 23 22 22 21 20 19 18 19 22 23 23 22 22 22 22 23 23 23 23 24 26 24 21 18 18 17 16 15 14 13 12 12 13 13 13 12 12 12 12 12 11 11 13 12 11 12 12 12 10 9 8 8 8 8 9 9 11 12
12 10 7 8 5 5 6 7 9 8 11 13 12 13 7 9 8 4 3 3 4 4 6 6 5 7 9 7 10 10 13 9 8 9 15 26 27 23 22 22 22 23 21 20 20 19 21 23 23 22 22 22 22 22 23 23 24 24 26 26 23 20 18 18 17 16 15 14 14 14 14 14 14 13 12 11 11 10 10 10 11 13 12 11 12 12 11 10 8 8 8 9 7 8 10 11 11
14 8 3 6 5 5 7 8 10 8 11 13 15 12 0 8 5 2 3 2 4 3 7 7 10 5 9 10 9 8 15 14 11 14 18 24 24 21 20 21 22 23 21 21 20 21 23 24 23 22 22 22 23 23 23 24 24 26 26 24 21 19 18 18 17 16 16 15 16 15 15 15 14 14 13 12 10 9 9 9 10 11 12 11 11 10 10 10 9 8 9 8 6 9 10 9 9
13 8 4 6 6 6 8 8 10 11 14 13 14 9 6 7 2 4 7 4 1 3 5 8 9 4 11 15 11 6 11 13 15 18 19 20 21 20 19 19 21 22 23 21 21 24 25 24 23 23 23 23 23 23 24 25 25 26 25 23 20 18 17 18 17 17 17 17 16 16 15 14 14 14 14 13 11 10 8 9 9 10 11 11 10 9 9 9 9 9 8 6 6 9 9 7 7
8 7 5 5 6 8 8 8 9 10 14 14 13 6 5 5 2 5 8 8 4 5 5 5 5 9 14 13 9 7 10 14 17 17 17 18 18 18 18 19 20 23 23 21 22 24 24 25 24 23 24 24 24 24 25 26 26 26 24 23 19 17 18 18 17 18 18 17 15 15 15 14 15 15 14 13 12 10 9 9 9 10 10 10 10 8 8 8 9 9 7 5 6 9 8 5 5
5 6 6 6 7 8 8 8 9 10 12 15 11 5 4 2 1 4 8 8 8 7 6 6 6 15 15 10 7 8 13 15 16 16 17 18 17 17 19 20 23 23 22 21 23 24 21 24 25 24 25 24 24 24 25 25 26 25 23 21 18 17 18 18 18 18 17 15 14 15 16 15 15 15 14 12 11 10 10 10 10 9 8 8 9 8 8 8 9 8 7 6 6 9 8 5 4
6 6 6 7 7 7 9 9 10 11 12 14 8 3 3 3 3 6 8 10 9 7 7 7 9 16 11 8 6 9 15 15 15 16 17 19 17 17 18 19 22 23 21 21 23 24 20 20 22 23 24 23 24 24 25 25 25 24 22 19 18 18 19 19 19 17 16 14 14 15 15 14 14 13 12 11 10 10 10 10 10 9 7 7 7 7 8 9 9 8 7 6 6 8 7 6 3
7 7 7 7 7 8 10 10 10 11 9 8 3 6 6 4 4 7 8 11 9 8 10 5 16 16 9 8 7 9 14 15 15 16 17 19 17 17 18 19 21 21 20 20 22 23 21 19 19 19 21 22 23 23 24 24 23 22 20 18 18 19 19 19 17 16 15 14 14 15 15 14 13 12 12 10 10 9 8 8 8 7 7 5 6 7 7 8 8 8 7 6 6 6 5 4 3
7 7 7 7 8 9 10 10 10 10 8 1 4 9 9 4 4 4 6 8 6 9 3 12 18 15 9 8 8 8 12 16 17 18 18 18 19 19 19 20 20 20 19 19 21 22 21 20 19 19 20 20 21 23 23 22 21 20 19 19 20 20 19 18 17 15 14 14 13 13 14 13 12 12 12 10 9 9 8 7 7 6 5 4 4 5 6 6 7 8 7 7 6 6 5 4 5
8 6 7 8 7 9 9 10 10 10 5 8 5 6 7 4 4 1 7 8 8 9 4 15 10 7 9 6 6 9 14 19 18 20 20 18 19 18 18 18 18 18 18 19 20 21 21 20 20 20 20 20 21 21 20 20 20 19 19 20 20 19 18 17 16 15 14 14 14 13 13 13 13 13 12 10 9 8 7 7 6 5 4 3 3 4 5 5 6 8 8 7 7 6 6 6 7
8 6 7 7 8 10 8 11 10 10 4 10 2 3 3 6 5 3 9 7 9 6 5 9 7 5 9 6 9 17 20 21 19 22 22 19 18 17 16 15 16 17 17 20 20 20 20 20 21 22 22 21 22 19 17 18 19 19 19 19 18 18 18 17 16 14 14 14 14 14 15 14 13 12 11 9 8 7 7 7 6 5 3 3 3 3 4 5 6 7 7 8 7 7 7 7 7
7 7 7 8 9 10 8 11 8 7 6 7 3 2 2 6 5 3 6 6 10 1 10 11 14 8 6 9 18 24 24 22 21 22 22 19 17 16 15 15 17 16 16 18 19 21 21 22 22 22 23 24 23 20 18 19 18 19 20 19 18 18 17 16 16 15 15 14 14 15 15 15 12 11 9 7 7 7 7 7 6 5 3 2 2 3 3 4 4 5 6 6 7 7 7 7 6
8 6 8 9 8 10 10 13 9 5 6 4 8 5 3 7 2 3 3 6 9 5 15 15 17 12 9 17 25 24 23 22 21 22 20 18 16 16 15 16 16 16 17 18 18 20 22 24 22 22 25 25 25 23 22 21 20 20 21 21 20 19 18 17 17 16 17 16 14 14 14 15 13 11 8 7 7 6 7 6 6 5 3 2 3 3 3 3 3 2 3 4 5 7 7 7 5
8 6 8 9 10 12 13 14 8 4 6 6 6 1 4 4 3 2 2 7 10 7 13 14 14 12 10 16 22 20 21 20 18 20 19 17 16 16 16 16 17 17 18 18 18 19 22 26 24 25 25 24 25 25 23 21 21 21 21 21 20 20 19 17 17 16 18 16 14 14 14 14 13 12 10 8 7 6 6 6 5 5 3 3 3 2 2 2 2 2 2 3 4 6 7 8 6
9 8 8 9 13 15 16 16 8 4 7 7 3 2 4 2 1 1 1 6 10 7 11 12 10 10 9 10 15 17 18 16 16 17 18 17 16 17 17 17 17 18 18 18 20 20 23 26 25 25 23 23 27 27 23 21 21 22 22 22 21 21 19 18 17 14 17 17 14 14 13 14 14 13 11 8 8 7 7 7 7 5 3 3 3 3 1 1 1 2 1 3 5 6 6 7 8
8 9 10 11 14 14 18 14 8 6 3 6 4 2 5 2 0 4 2 5 3 5 9 11 10 11 11 10 12 14 14 14 16 16 16 16 15 15 16 17 17 17 17 18 19 20 23 26 25 26 23 23 27 27 22 21 22 22 23 22 22 21 19 19 15 11 15 16 15 13 12 13 14 13 11 8 7 8 7 8 7 5 3 2 3 3 1 2 2 2 1 2 4 4 5 8 9
8 11 14 15 16 14 16 9 6 7 3 4 6 5 8 2 1 7 7 6 4 8 9 11 11 12 12 12 12 12 12 13 14 15 15 14 14 14 14 15 17 17 16 16 17 20 24 25 24 27 25 22 25 26 20 20 22 22 22 21 20 18 17 17 12 10 14 15 14 12 10 12 13 12 10 7 7 7 8 8 7 6 5 3 4 4 4 4 3 3 4 5 6 7 9 10 9
9 11 14 16 18 17 16 10 3 2 5 6 8 11 9 4 4 7 8 5 9 12 11 12 11 11 12 13 12 12 13 13 13 14 15 15 16 15 15 16 16 18 17 16 18 22 26 25 25 26 24 21 22 23 19 18 19 19 19 18 17 14 13 13 10 10 13 14 12 8 10 11 12 10 9 10 9 8 8 8 9 9 8 6 6 6 6 5 4 5 7 10 11 12 12 10 7
13 12 14 16 18 17 16 12 2 2 6 9 10 11 6 4 7 4 6 1 15 15 13 14 12 12 11 12 13 12 13 13 13 14 16 15 17 16 16 16 17 17 16 15 18 23 25 25 26 25 23 22 21 21 19 18 18 19 19 17 15 12 11 11 11 11 12 13 11 8 12 11 11 9 9 11 10 9 8 8 10 10 10 8 7 7 6 5 6 7 7 10 12 13 13 12 11
15 14 14 14 16 16 15 14 8 4 6 8 9 11 6 5 10 7 6 3 14 14 16 17 16 15 12 12 12 12 11 11 12 13 14 14 16 16 13 15 17 17 16 16 18 22 25 25 26 26 24 23 22 20 19 19 20 20 19 17 15 13 12 11 12 12 12 13 10 10 12 9 10 10 8 8 7 9 9 9 10 9 10 9 6 7 7 5 7 8 6 6 9 10 10 12 11
12 15 15 15 16 16 13 11 11 9 6 7 9 11 9 8 12 9 7 4 11 12 16 18 17 17 14 13 12 11 12 11 11 13 13 13 15 15 14 14 16 16 17 17 17 22 26 24 25 26 24 24 22 20 19 19 19 19 17 15 14 13 12 12 12 13 13 14 11 11 11 9 9 9 7 6 7 9 9 9 8 7 9 8 6 6 7 5 6 7 6 5 6 7 7 7 8
11 16 16 17 17 16 14 10 11 10 10 11 10 11 11 10 11 6 8 10 10 9 15 20 17 16 14 13 12 10 11 11 12 13 13 12 13 14 14 15 14 14 17 17 17 21 25 24 23 22 22 23 22 20 20 19 19 17 16 15 15 14 13 12 12 13 14 12 12 11 9 9 8 7 8 8 9 8 7 8 7 5 6 6 5 5 5 5 6 7 6 6 5 5 5 6 7
14 16 12 13 16 16 18 14 11 10 11 13 12 13 12 11 12 8 10 12 10 9 14 20 17 16 13 11 11 8 8 10 11 11 10 9 12 14 14 16 15 14 15 17 17 19 24 26 21 16 18 22 21 19 19 19 18 16 15 17 17 14 13 12 11 13 12 10 12 11 9 10 11 11 10 10 11 9 6 6 6 5 5 6 6 6 6 6 6 6 6 5 4 2 4 6 6
15 16 11 12 14 15 19 16 12 11 10 12 12 12 12 11 14 12 14 14 12 12 12 14 14 14 13 10 10 7 8 11 11 10 10 11 13 14 16 16 16 15 13 15 14 16 21 24 17 12 15 18 16 15 15 15 14 15 16 18 17 14 13 12 11 12 11 9 11 10 11 14 13 12 11 9 9 8 7 8 7 6 5 7 8 8 7 6 6 4 4 4 3 1 3 5 6
13 13 10 11 12 11 16 16 14 14 10 10 10 8 9 12 15 14 15 15 12 12 11 10 11 11 13 10 11 10 10 11 11 12 13 15 13 13 16 15 16 16 13 14 11 14 17 21 17 14 13 11 9 12 13 11 11 13 16 16 15 14 14 12 10 9 9 10 11 11 13 14 11 10 9 8 7 6 7 7 8 7 7 7 9 10 8 6 7 4 3 3 3 2 3 4 5
10 11 9 9 9 9 14 16 16 15 11 12 11 7 9 12 16 17 15 12 11 10 12 11 10 10 12 11 12 11 11 11 12 14 15 15 14 13 14 15 15 13 15 15 12 16 19 22 19 16 15 13 11 12 14 12 11 12 14 13 12 12 11 9 7 8 9 11 13 14 14 12 10 9 8 8 7 7 7 7 7 7 7 7 8 9 8 6 5 4 3 2 1 2 3 4 5
8 9 9 9 9 10 13 16 19 17 13 15 14 8 8 11 14 18 17 14 15 13 11 11 11 10 12 10 10 10 10 11 13 14 15 16 15 14 14 14 10 13 17 14 13 18 23 24 21 18 19 16 15 17 16 14 14 12 11 8 7 9 9 7 6 8 11 11 11 11 11 10 10 9 8 8 8 7 7 6 7 6 6 6 6 6 5 5 4 2 2 1 0 1 2 3 5
8 8 8 10 11 10 11 15 19 20 15 16 17 10 7 10 13 15 19 19 18 15 13 13 14 11 11 7 7 9 8 9 11 13 15 16 14 13 10 8 14 18 14 13 15 19 22 23 22 22 20 17 18 20 18 16 14 12 9 4 4 7 8 8 8 8 10 9 8 9 9 10 9 8 7 7 7 8 8 7 7 7 6 6 6 5 4 5 4 3 3 2 1 1 1 2 3
7 8 8 11 13 11 10 13 16 21 17 16 17 12 9 12 13 15 17 22 18 14 14 14 13 9 11 10 8 9 8 9 10 13 16 15 15 12 10 23 21 15 14 16 19 20 21 22 24 23 19 18 19 20 20 18 15 11 9 5 4 5 6 9 11 9 8 9 8 8 9 10 9 8 7 7 7 8 8 6 7 8 7 6 6 6 5 4 4 3 3 0 0 2 1 1 2
9 9 8 9 13 14 12 13 13 21 19 15 15 14 13 15 14 13 6 19 18 15 14 12 12 10 11 12 10 10 11 11 10 13 15 15 15 10 22 28 18 15 20 22 20 20 22 22 23 23 20 21 20 20 21 20 17 14 12 9 9 7 6 7 10 9 7 9 9 8 8 9 8 8 7 6 7 7 7 5 5 6 7 6 5 6 5 3 3 3 3 1 0 1 1 2 3
12 8 9 10 11 12 14 14 12 20 18 14 14 14 14 15 16 9 5 11 12 12 11 9 10 11 10 12 9 10 11 10 11 14 15 16 11 18 23 20 17 19 24 23 20 21 22 21 22 22 21 22 21 20 20 19 18 15 12 11 10 8 7 7 9 8 8 10 9 8 8 8 7 8 6 6 6 5 5 4 5 6 5 5 5 5 5 3 2 2 3 2 1 2 2 1 1
14 13 14 13 11 10 14 14 11 17 13 13 14 13 14 13 15 13 11 12 11 9 9 9 9 10 11 11 11 12 11 11 12 14 16 13 17 29 26 21 22 24 23 22 21 21 21 21 21 21 20 19 20 20 19 18 17 12 10 9 9 10 9 8 8 9 9 9 10 10 9 8 8 8 7 6 6 4 4 4 4 4 3 3 4 4 5 4 2 2 2 2 1 2 2 0 1
13 12 15 11 10 11 12 14 12 14 9 10 13 13 13 13 14 13 12 15 13 11 10 10 10 11 11 11 12 12 11 10 11 12 14 12 24 28 25 23 24 25 24 22 22 23 21 18 17 17 17 16 17 18 17 15 13 10 10 9 9 9 9 9 9 9 9 8 9 10 9 8 8 8 7 7 7 6 6 5 4 3 2 3 2 3 4 4 3 2 3 3 2 1 2 1 2
10 9 11 9 6 10 10 10 9 10 5 7 11 11 11 12 14 12 12 13 12 11 11 10 11 11 11 11 10 11 11 9 10 10 9 17 25 23 22 22 23 23 23 22 21 22 19 15 16 16 16 17 17 15 13 12 13 11 7 7 10 10 11 12 11 9 9 9 9 9 8 8 7 7 7 8 8 7 5 5 5 3 2 2 2 2 3 2 3 3 3 3 2 2 2 1 3
8 8 8 7 8 10 5 4 4 9 5 6 7 8 8 12 12 10 13 12 12 11 12 12 12 10 10 11 9 10 11 9 8 7 9 18 21 18 18 19 22 22 19 19 20 20 17 14 15 16 16 17 16 13 12 13 15 12 8 8 11 14 15 14 12 10 10 10 10 9 9 8 7 7 7 8 8 7 6 5 5 4 3 3 2 2 2 1 2 4 3 2 2 4 2 1 2
9 10 10 9 10 12 7 6 6 7 7 6 6 8 7 11 11 10 12 9 11 10 12 12 12 10 11 11 8 7 9 6 7 14 14 13 13 15 16 18 22 20 16 16 17 19 19 15 15 16 17 17 15 13 14 16 16 13 11 11 12 13 12 11 11 10 9 10 10 9 8 8 7 7 8 9 8 7 7 6 5 6 5 4 2 3 3 2 3 4 4 2 3 5 4 2 1
9 11 13 15 15 16 10 6 7 4 5 7 7 8 7 8 11 12 9 8 10 11 12 12 13 12 10 8 7 6 8 8 13 16 12 10 11 13 15 16 17 15 15 16 15 18 19 18 18 18 17 17 16 16 16 18 16 13 11 11 11 11 9 9 9 8 8 10 10 8 8 8 8 8 8 8 8 8 8 7 7 7 7 6 5 6 5 5 5 6 5 3 4 6 5 4 2
8 10 13 17 19 18 15 7 6 5 5 6 9 9 5 7 13 14 11 11 13 13 12 12 13 9 7 6 7 5 8 12 13 10 10 11 11 11 13 15 15 15 17 18 18 19 19 20 20 20 20 19 18 18 17 18 17 13 10 9 9 8 8 9 8 8 9 10 9 8 9 8 8 8 8 7 7 8 8 8 8 7 7 7 8 9 8 8 8 8 7 6 7 7 6 6 5
8 10 13 17 18 17 15 13 7 5 5 5 9 10 7 7 11 13 13 13 13 13 11 11 9 6 8 4 2 8 10 9 9 10 12 14 12 12 14 16 17 19 21 22 22 23 23 23 22 21 22 20 19 18 17 17 15 12 9 8 8 8 9 10 9 9 10 9 8 8 8 8 7 7 7 8 8 8 8 8 7 6 5 6 9 11 10 10 10 11 10 9 10 8 7 8 7
10 13 14 13 14 15 14 10 7 5 5 6 8 9 7 6 6 9 13 14 13 12 12 11 7 11 8 6 5 13 8 6 8 9 15 16 13 16 20 19 18 21 23 22 23 25 26 25 24 22 22 21 20 18 17 16 13 11 10 9 9 10 11 10 9 9 9 8 7 8 8 8 8 8 7 8 8 7 8 8 7 7 8 8 11 13 11 11 13 14 13 12 11 10 9 9 8
11 14 13 9 10 12 11 8 7 6 5 6 8 7 6 6 5 7 10 12 12 10 11 11 9 11 10 7 12 13 7 5 4 9 18 17 15 20 22 20 20 21 21 23 24 27 29 27 26 25 24 24 23 20 18 16 13 13 11 10 11 13 12 10 10 10 9 8 7 8 8 8 8 8 7 7 7 8 10 10 8 8 8 9 11 11 11 13 13 14 14 13 13 12 12 11 10
12 11 10 9 9 9 9 8 6 5 5 8 11 10 8 7 5 6 8 10 10 9 9 8 10 13 11 12 15 10 7 6 2 10 17 19 19 20 18 18 19 19 21 25 26 28 32 31 29 29 27 26 25 22 20 17 16 15 12 11 14 14 12 12 12 10 9 8 8 8 8 8 7 7 7 7 7 8 11 11 9 9 9 9 10 10 11 13 12 12 14 15 15 15 15 14 13
10 7 6 8 7 6 7 6 5 6 5 8 13 13 11 8 4 5 5 5 6 7 8 8 8 11 11 13 13 10 7 6 4 9 15 17 16 15 14 16 18 18 20 25 25 25 29 31 32 31 30 27 25 24 21 19 19 16 12 12 15 14 13 13 12 11 10 9 8 9 9 8 8 7 7 8 8 9 10 10 10 10 10 10 10 11 11 11 12 13 14 15 16 16 16 15 13
9 7 7 7 5 5 6 5 6 6 6 9 11 10 8 4 1 2 2 2 2 3 7 10 10 10 11 13 13 8 5 5 6 9 13 12 9 8 9 11 16 18 19 23 24 21 22 27 32 33 31 28 26 25 24 22 19 14 13 15 16 14 13 13 12 10 10 9 8 8 8 8 8 8 8 8 9 9 10 11 11 11 11 10 10 11 10 11 12 13 14 15 16 15 15 15 13
9 7 7 7 5 5 6 6 6 6 7 10 8 4 3 2 4 5 7 8 8 10 5 10 12 10 9 12 13 9 6 5 6 12 14 10 7 8 10 13 16 17 17 17 17 16 16 21 28 30 29 28 27 27 26 23 20 15 15 17 16 15 14 12 12 10 10 9 8 8 8 8 9 9 9 8 9 10 11 12 12 11 11 11 11 11 12 13 13 14 14 15 16 15 16 15 14
10 9 8 7 5 4 5 5 5 4 4 7 8 4 1 2 4 8 10 9 8 9 8 7 7 7 8 10 13 11 9 6 7 12 12 11 11 13 16 17 14 13 15 14 12 11 14 20 24 26 29 29 28 29 29 25 23 19 17 18 17 15 15 13 11 10 10 9 9 9 8 9 10 9 9 9 9 10 11 11 11 11 11 11 11 11 12 13 13 14 14 15 15 15 16 16 15
7 9 9 6 4 4 3 3 2 1 3 5 5 3 3 4 4 7 9 7 7 7 7 8 9 7 5 8 11 10 9 6 8 10 9 10 13 15 12 10 10 11 12 14 12 10 12 17 21 23 28 29 27 28 29 28 25 20 17 18 17 16 15 14 12 11 10 9 9 9 9 10 11 10 10 10 9 10 11 11 11 11 10 10 10 11 11 12 13 14 14 15 15 14 15 16 15
2 6 9 7 7 6 2 2 2 2 3 3 2 3 4 4 6 7 9 9 8 6 8 10 9 9 7 7 8 7 7 9 9 10 10 9 12 12 10 11 13 12 10 11 16 16 12 12 17 21 25 27 26 25 25 26 25 21 17 16 16 15 15 14 13 12 11 10 9 9 10 11 11 11 11 10 10 10 10 10 11 11 10 10 10 11 11 11 12 13 13 14 14 14 15 15 14
3 4 4 4 5 5 2 2 3 3 6 5 5 5 4 5 5 7 10 10 9 8 11 11 7 6 5 5 6 5 9 11 10 10 9 7 9 12 15 18 19 19 18 18 21 21 17 14 16 20 23 26 26 24 24 25 24 21 18 15 15 14 13 12 13 13 12 11 9 9 10 11 12 12 12 11 11 11 10 10 11 11 10 10 10 10 11 11 12 12 12 12 12 13 14 14 14
9 3 2 3 3 3 2 2 3 4 5 4 6 9 5 2 2 8 9 10 11 8 9 9 5 3 3 3 5 9 11 10 9 10 7 6 9 14 18 19 21 22 23 23 21 21 21 20 18 16 17 20 22 22 22 22 21 19 17 15 14 14 13 12 14 14 12 11 10 10 10 12 12 12 11 12 11 11 11 10 10 11 10 11 11 11 10 11 11 11 11 11 11 12 13 13 13
10 5 3 4 3 2 2 2 3 5 5 4 7 7 2 4 1 9 11 11 11 9 9 8 2 2 1 3 5 8 8 8 7 7 7 8 9 12 14 17 21 21 20 20 19 19 20 21 21 19 18 18 18 19 19 19 17 17 16 15 14 14 13 13 14 14 13 12 11 10 10 11 12 12 12 12 11 11 11 11 11 11 10 10 10 10 10 10 10 10 10 10 10 10 11 12 12
8 6 6 6 4 4 4 3 4 5 5 4 4 3 3 5 3 9 14 10 9 10 11 10 5 3 0 2 5 6 5 5 4 5 7 8 9 10 13 17 19 21 20 19 16 16 17 18 19 20 21 19 17 16 17 17 16 15 16 16 16 16 15 15 15 15 14 13 12 11 11 11 12 12 12 12 11 11 11 11 11 11 10 10 9 9 9 8 9 9 9 9 8 9 10 10 10
8 7 7 7 6 5 4 4 5 5 4 2 1 1 3 4 3 9 12 9 8 10 12 13 10 7 5 4 5 5 2 3 5 7 8 8 9 12 15 16 18 19 20 18 15 14 15 15 15 16 17 17 16 16 17 16 16 16 17 17 18 19 18 16 17 17 16 15 14 13 12 12 12 12 12 11 11 11 11 11 11 11 10 10 9 9 8 8 8 8 8 7 7 8 8 8 8
Wind_Direction
216 224 234 241 241 252 242 214 239 215 223 251 245 250 246 241 247 255 243 207 231 330 314 255 9 304 339 334 50 75 48 29 29 27 89 123 129 118 105 109 115 119 128 141 147 148 153 154 154 156 160 162 161 161 160 159 156 153 151 150 150 149 147 145 142 139 138 135 135 135 135 138 143 140 134 129 125 122 117 114 113 113 114 116 115 110 109 108 106 104 102 102 100 100 100 99 97
216 224 233 243 238 245 242 198 244 234 214 240 241 246 252 245 239 242 234 204 146 84 24 33 8 306 18 315 343 76 58 50 67 79 107 121 119 118 112 113 117 118 128 139 141 144 149 151 155 156 159 161 161 161 160 159 156 155 153 151 151 150 149 146 144 143 140 136 135 136 136 137 140 140 135 130 127 123 115 116 121 120 121 122 120 116 117 114 111 109 107 106 104 103 102 103 102
226 237 229 224 230 237 253 215 235 251 230 235 239 234 240 252 247 243 263 272 85 87 80 65 18 274 197 270 10 61 66 62 82 95 114 116 114 123 117 112 117 120 128 131 133 141 144 149 156 156 158 160 159 161 160 159 158 158 154 152 152 151 149 147 146 144 141 136 136 135 133 132 133 137 137 134 133 129 124 131 132 126 126 124 122 123 123 120 117 114 112 111 109 107 107 108 108
232 249 239 216 217 222 237 234 226 250 248 246 249 226 221 236 237 180 63 48 67 90 157 155 130 192 51 57 54 66 73 65 74 89 110 113 116 120 115 113 118 121 127 128 129 141 144 148 154 155 156 158 160 162 161 161 161 159 154 152 153 151 150 148 147 144 142 138 136 133 130 130 131 135 137 138 138 137 138 143 140 135 132 124 123 125 124 125 123 119 117 116 116 114 115 113 113
234 251 247 231 232 227 232 240 232 241 244 252 261 272 253 234 176 89 77 53 56 104 194 203 169 129 71 53 43 59 63 66 67 73 94 104 114 116 114 117 121 124 129 129 131 142 145 148 152 153 155 158 162 162 162 163 162 158 153 153 153 152 150 148 147 146 143 138 135 134 133 133 133 134 133 134 140 143 146 148 148 144 134 128 133 133 134 134 128 123 123 123 122 121 121 117 116
234 249 242 237 263 297 265 242 237 238 241 252 264 297 332 51 50 60 76 54 271 309 279 262 225 106 85 68 62 50 34 65 84 80 101 107 115 120 120 122 124 128 132 131 136 144 145 150 152 152 156 158 162 163 163 162 160 157 154 155 154 152 150 148 149 147 144 140 138 138 139 136 133 133 131 132 139 144 146 144 145 144 136 141 149 145 144 140 133 130 131 132 130 129 125 116 113
226 238 220 225 255 275 258 249 245 244 240 244 255 272 309 58 57 52 92 194 181 199 226 251 237 111 97 100 81 54 40 63 103 108 116 114 118 123 125 128 130 134 138 136 142 148 146 152 153 154 157 158 161 161 161 161 158 156 156 156 155 152 150 150 150 149 145 143 142 140 140 137 137 136 134 135 137 141 143 139 137 142 140 147 154 151 150 141 137 142 142 143 144 139 128 116 111
227 242 207 218 234 231 234 251 248 255 248 242 249 252 343 69 55 337 308 211 153 196 194 215 242 166 104 100 90 60 55 68 99 113 118 118 121 124 128 133 135 138 138 136 145 151 150 155 155 156 157 158 160 159 159 159 158 157 158 158 155 153 151 153 152 150 148 147 147 145 143 142 144 143 141 139 139 143 143 140 137 142 140 140 144 145 148 142 146 153 150 150 155 148 135 123 117
227 242 234 231 237 239 236 247 243 251 256 253 255 243 112 101 152 262 296 294 147 287 213 189 229 185 101 94 96 84 72 80 98 110 117 122 124 123 128 135 138 139 135 134 146 151 153 158 157 157 158 158 159 159 160 158 159 159 159 160 158 157 155 155 153 151 151 154 155 152 151 150 151 150 148 144 144 149 151 153 145 145 142 138 138 136 146 151 156 161 156 153 157 159 148 132 128
220 226 233 241 235 248 243 244 245 247 254 257 250 232 75 85 155 223 255 275 259 263 253 212 189 123 104 97 100 96 97 103 107 117 125 125 123 124 130 135 138 135 133 135 147 150 152 159 158 159 159 159 159 158 159 158 159 161 163 164 162 160 158 157 155 154 158 161 160 158 158 155 153 154 151 147 148 150 154 162 156 152 148 144 143 140 149 160 162 163 163 159 161 167 165 151 146
220 219 228 247 239 246 247 247 246 238 244 253 239 159 101 106 136 246 241 255 258 252 244 231 162 115 105 96 97 109 115 116 121 134 135 124 123 134 138 137 137 131 131 137 146 150 150 157 158 159 159 157 158 157 159 161 163 165 167 167 164 163 160 160 157 157 164 165 161 161 161 156 154 155 154 149 145 143 145 153 155 156 152 149 151 148 149 159 164 165 168 169 171 172 174 177 168
228 223 215 240 247 245 250 256 252 245 234 234 230 120 108 131 185 253 251 242 247 260 250 221 138 116 116 107 110 128 123 124 136 144 135 126 129 137 136 132 135 131 131 137 145 150 146 151 154 155 157 154 155 157 162 166 168 169 168 169 167 165 162 159 157 162 167 165 161 161 159 156 154 157 159 153 143 139 142 148 153 156 154 149 151 150 148 161 169 174 181 180 181 179 179 184 183
235 237 223 232 248 252 257 259 262 267 252 228 176 99 105 121 215 243 247 240 227 235 249 184 114 110 114 113 123 139 129 134 146 145 135 135 139 134 129 126 128 130 132 137 143 146 141 145 149 150 154 155 158 163 169 171 170 172 172 171 168 164 162 159 159 165 162 154 154 154 154 155 156 160 163 158 147 143 146 150 153 155 152 149 151 151 153 166 173 179 191 195 193 192 196 207 210
235 244 248 248 249 255 260 261 268 269 267 328 92 120 120 165 235 283 275 261 239 230 232 96 108 109 109 119 133 147 138 144 151 142 133 139 142 134 129 125 125 131 134 139 140 140 139 141 144 148 151 152 162 172 175 175 173 175 173 167 164 162 161 161 161 159 152 146 143 144 151 157 159 163 165 163 155 150 158 159 156 158 154 152 160 163 165 171 180 188 196 205 208 208 215 227 219
236 248 255 260 260 256 254 259 268 268 281 62 90 141 120 217 204 309 269 259 251 231 111 89 104 117 129 146 147 151 146 149 152 139 130 132 135 128 125 126 130 135 138 141 141 140 140 141 142 143 142 148 168 176 171 172 173 170 165 160 160 162 164 164 159 153 149 143 137 144 153 158 160 162 166 167 162 161 168 170 167 166 162 164 174 179 181 183 191 201 202 208 216 221 218 209 204
235 253 252 255 259 260 256 254 255 260 282 75 68 219 158 245 177 219 253 241 251 225 112 81 55 92 143 154 143 147 147 150 151 139 131 126 128 126 125 131 136 136 139 143 146 146 145 144 142 138 141 158 173 169 160 164 165 160 157 159 164 168 170 165 157 154 149 141 144 157 156 150 155 161 166 167 165 166 169 177 180 178 185 187 182 178 187 198 205 212 211 211 215 214 204 193 194
231 241 252 256 250 254 253 251 249 253 244 117 73 320 281 263 158 195 267 255 262 82 79 67 55 63 118 122 133 141 144 149 152 143 135 132 136 136 134 138 137 136 144 149 153 153 150 146 141 141 152 167 171 162 159 160 157 159 160 165 171 172 171 165 162 158 147 147 161 166 155 146 152 160 162 165 165 172 176 178 183 193 214 196 176 168 167 182 198 213 209 208 209 200 189 185 191
232 228 238 249 246 251 248 251 263 286 275 95 59 26 303 280 118 135 225 236 245 89 76 74 68 54 61 107 127 137 142 148 155 151 144 143 145 146 145 146 144 147 153 156 160 156 151 147 145 153 163 168 168 163 161 160 160 166 169 173 176 174 172 169 171 164 149 156 171 166 155 151 155 160 158 163 168 178 185 182 190 199 206 189 184 173 155 152 157 175 186 189 190 187 188 188 190
230 232 233 240 245 251 249 255 275 359 6 43 55 357 239 277 28 101 206 242 224 145 88 83 81 73 73 105 124 134 140 148 161 160 154 154 152 151 151 154 156 158 161 161 161 156 150 152 155 161 164 163 167 166 161 160 165 173 175 176 178 175 171 172 175 165 150 159 173 164 159 160 164 166 161 163 166 175 188 189 197 199 195 187 186 182 156 122 101 99 127 159 173 187 194 188 189
222 234 240 237 242 254 259 267 294 7 14 357 22 136 227 216 117 218 214 252 228 166 105 100 100 108 114 119 129 132 137 152 169 166 162 162 157 154 156 159 161 161 163 164 160 154 153 161 163 161 160 160 167 169 164 161 166 176 177 175 178 176 173 175 176 163 149 158 173 165 162 168 172 171 161 157 166 177 193 194 194 193 194 183 186 208 191 89 59 57 87 158 174 185 198 205 218
213 225 241 245 244 250 254 269 304 291 292 299 327 63 254 229 35 293 214 220 221 108 116 129 130 133 144 145 141 138 142 161 174 173 169 166 158 156 161 161 159 158 161 164 159 151 155 164 165 163 162 162 170 171 166 163 166 174 176 177 179 176 175 177 175 152 142 159 173 167 169 175 174 173 164 160 172 180 191 196 195 191 200 201 194 203 251 292 319 357 343 217 194 201 247 265 262
221 228 237 247 253 254 255 280 330 299 315 268 270 274 277 359 318 272 255 233 138 115 121 127 139 144 149 150 147 148 156 172 179 177 173 168 159 154 160 160 156 156 162 168 159 150 156 161 163 168 166 163 170 170 164 161 166 171 173 176 177 172 171 174 171 142 139 160 173 169 178 183 176 172 168 171 183 184 186 194 195 191 196 208 205 194 205 250 293 295 279 271 270 278 273 269 279
232 239 238 243 253 259 272 297 355 325 312 278 261 261 279 331 272 258 276 277 116 124 120 122 138 138 141 144 147 157 168 180 183 182 178 169 162 158 162 163 160 159 165 173 160 151 156 160 164 169 166 163 168 167 160 157 163 169 170 171 170 166 163 167 169 146 139 160 175 171 168 175 175 169 166 174 184 189 193 201 200 200 198 199 213 208 202 219 237 247 255 258 272 287 279 270 284
232 242 242 244 249 253 265 280 317 107 251 263 266 264 271 288 265 233 256 238 110 126 136 135 137 131 140 146 154 167 173 184 186 187 184 174 166 163 165 164 165 166 169 172 160 153 155 159 165 166 165 166 165 162 157 155 160 164 166 164 162 160 158 162 166 153 144 158 175 169 152 160 171 170 180 181 180 185 196 212 211 211 209 207 218 221 220 230 233 239 255 264 275 287 292 303 316
232 241 245 250 254 251 251 252 247 218 231 251 257 263 264 251 261 248 242 163 124 147 148 138 140 141 150 153 163 172 175 190 188 190 189 175 167 163 165 165 168 171 172 167 153 154 159 159 165 164 161 164 161 158 156 155 160 162 160 157 156 158 157 159 161 155 156 165 177 169 160 177 179 172 193 195 182 182 190 211 215 214 214 214 220 226 229 235 237 237 245 263 266 272 291 311 317
231 241 245 247 254 257 258 247 241 239 236 244 240 246 247 243 259 260 257 194 141 158 151 142 148 149 154 159 171 177 177 194 189 190 193 170 163 168 170 170 173 172 169 165 149 152 159 159 167 166 158 160 158 154 156 157 159 156 154 154 156 158 157 159 156 154 165 171 171 171 179 208 198 167 179 206 209 196 197 209 206 208 219 217 215 225 226 232 240 234 236 242 246 269 291 298 291
242 244 243 243 251 258 262 250 241 247 242 241 238 241 237 232 246 235 243 227 157 156 154 146 155 156 160 163 164 176 180 196 189 182 185 161 159 175 177 176 180 173 164 165 154 151 159 161 168 168 157 157 156 151 154 154 152 150 154 160 159 155 154 157 156 160 171 172 170 175 189 214 216 191 186 203 210 201 206 219 211 214 227 220 215 223 224 232 237 235 248 245 244 283 279 265 274
254 254 253 248 254 255 253 243 228 238 236 231 230 244 237 225 238 216 232 231 153 172 173 154 164 156 158 162 150 174 184 183 177 169 177 166 167 180 186 183 176 167 162 166 155 140 154 163 163 161 152 152 153 151 151 148 147 152 158 160 157 150 148 153 161 169 171 175 178 180 188 196 201 201 194 195 196 186 181 205 219 238 241 228 229 229 225 226 227 240 261 252 245 260 234 245 264
256 260 262 252 255 251 249 242 224 230 231 222 217 239 240 222 234 218 229 233 166 188 200 171 178 153 149 162 151 179 189 171 168 169 185 192 189 182 186 191 176 164 159 163 149 118 138 156 154 149 145 147 145 136 137 137 140 154 159 159 157 148 147 159 172 171 165 173 182 187 193 192 192 195 193 192 198 187 168 173 189 210 221 224 231 233 234 230 227 259 285 255 233 211 229 252 258
251 253 256 254 255 248 245 238 227 229 228 220 207 223 237 225 232 221 226 231 180 185 203 186 196 159 144 164 167 179 185 175 176 185 194 202 206 190 186 196 182 162 147 148 127 86 114 141 141 131 129 136 121 92 88 101 126 152 158 156 156 153 153 168 177 165 162 172 180 192 195 189 189 192 192 190 193 186 170 165 176 192 202 210 223 228 232 226 223 249 280 239 215 231 265 268 266
245 242 242 246 253 250 242 231 221 223 223 216 209 222 235 223 222 217 222 216 168 186 203 189 203 172 148 168 173 173 180 177 181 192 198 200 206 206 196 193 186 156 128 127 101 81 107 135 139 127 130 140 134 104 86 102 132 149 158 151 147 151 150 162 169 158 172 181 176 183 186 180 178 178 181 180 176 175 166 164 175 185 192 197 213 221 218 211 214 226 243 232 221 276 283 285 286
236 236 238 234 239 250 246 231 215 214 218 209 210 230 233 236 228 211 213 199 175 199 209 194 208 183 152 167 165 162 178 180 183 190 198 200 200 211 205 186 161 109 106 116 108 104 117 134 139 128 131 130 132 134 118 127 142 137 149 149 138 141 134 144 161 163 176 179 166 165 170 167 165 166 168 168 168 168 163 168 177 179 183 187 196 206 203 197 198 194 199 203 177 312 310 311 301
222 225 240 239 235 240 245 241 215 205 212 206 209 227 228 240 241 221 212 198 185 198 207 205 210 183 145 153 164 162 178 189 196 198 200 202 200 211 206 138 96 90 113 141 130 119 120 133 137 125 125 121 126 139 131 131 135 125 134 142 128 126 126 148 163 163 163 158 146 147 153 151 155 162 157 159 162 154 155 167 176 179 172 170 180 179 181 181 172 166 172 192 195 106 13 346 316
223 219 232 243 243 239 234 243 216 194 206 209 201 215 240 239 243 259 228 190 180 192 206 210 205 181 142 146 172 169 182 198 203 210 205 198 201 199 114 88 93 114 142 143 130 124 122 131 134 123 123 128 128 134 130 126 126 123 125 135 160 140 144 161 150 139 138 136 135 140 146 144 149 152 141 147 144 136 151 169 181 185 170 169 179 165 168 177 161 161 160 177 280 114 77 358 350
223 215 223 232 244 247 236 246 216 183 197 213 198 199 233 246 246 278 238 166 174 188 202 214 198 183 146 147 174 178 187 196 199 212 205 198 201 160 100 97 109 131 135 127 125 131 127 126 131 127 127 134 135 133 129 124 124 126 130 156 179 161 151 142 123 112 113 121 127 128 133 133 137 138 133 140 136 142 167 170 172 178 162 162 172 162 165 177 170 158 145 150 312 104 73 354 10
243 255 252 229 232 245 237 248 217 176 187 207 209 203 212 240 244 241 142 151 196 194 195 225 196 180 165 158 178 189 191 193 195 201 199 201 173 107 106 126 129 121 124 124 124 132 130 127 131 133 133 137 138 135 129 125 125 130 143 165 167 139 120 109 109 116 115 115 119 114 109 110 115 118 121 128 132 160 176 139 139 152 147 149 156 167 164 159 179 158 134 153 153 111 75 334 309
269 297 285 242 225 243 234 240 214 175 186 202 210 220 205 220 240 222 173 171 217 210 198 231 202 185 191 182 186 193 194 193 189 191 198 187 119 104 115 133 126 116 120 124 129 135 134 133 136 139 140 138 135 135 132 126 125 128 139 144 131 119 119 115 107 112 113 109 110 106 101 103 104 104 108 113 118 135 133 112 118 128 155 172 154 158 158 153 164 142 123 117 122 121 67 45 212
275 292 290 260 221 236 233 235 215 172 185 202 196 222 219 212 228 226 193 177 200 211 205 231 217 195 201 198 197 189 187 195 182 184 193 138 102 109 117 118 119 118 127 137 140 142 137 133 137 140 139 135 133 135 133 126 118 115 125 130 130 130 135 132 110 103 109 101 101 103 103 107 103 101 103 104 101 92 92 107 116 122 170 182 155 150 155 162 165 151 126 111 119 97 38 63 129
274 273 277 282 245 235 230 232 216 159 179 217 189 212 231 228 226 221 213 190 183 196 204 231 228 204 200 200 203 185 178 198 182 176 166 107 100 114 117 117 123 126 141 147 139 140 137 129 132 135 135 135 135 134 130 122 107 104 121 133 137 129 119 121 116 112 117 111 107 104 102 105 104 109 106 102 102 91 88 96 90 94 130 123 132 153 154 175 183 172 136 109 119 94 56 69 113
263 263 254 271 268 249 221 179 158 129 152 243 230 228 231 235 228 217 231 204 165 187 209 228 229 209 199 200 214 194 177 195 174 127 83 92 105 121 124 125 128 134 147 140 130 133 131 130 135 134 137 139 138 134 123 111 101 103 116 116 120 116 106 111 117 117 116 113 110 105 103 101 96 98 93 94 96 91 98 98 88 83 67 59 51 96 129 162 155 156 146 109 113 107 81 66 127
245 252 250 258 266 260 237 158 151 146 162 201 246 257 239 234 224 215 234 196 160 198 213 223 228 207 196 200 219 197 167 170 113 85 78 97 120 140 141 130 130 137 138 128 127 129 130 137 139 136 137 137 139 136 122 116 111 108 114 111 111 112 113 119 121 118 120 118 112 107 107 102 97 92 84 87 88 85 91 90 93 94 79 68 52 58 73 73 88 117 128 121 120 109 83 58 84
248 238 243 256 265 271 265 171 157 189 200 187 208 243 237 228 229 225 223 178 178 217 217 220 225 202 190 199 212 182 135 90 79 90 106 131 142 146 131 112 120 129 125 127 128 127 133 139 139 137 134 134 139 139 133 130 122 112 116 117 115 123 134 134 125 121 122 118 113 111 110 105 101 96 89 88 86 86 89 83 86 90 86 82 76 75 73 67 78 90 90 93 108 110 103 87 69
252 233 226 243 258 270 276 251 196 207 234 205 200 230 244 219 225 224 213 193 197 210 209 219 223 190 159 198 212 168 105 77 80 113 142 140 133 127 110 107 127 135 133 139 135 133 139 137 139 140 137 141 142 141 144 137 124 118 123 126 134 148 143 127 119 114 111 111 110 109 111 110 105 101 99 97 93 90 86 84 89 94 99 94 84 79 74 70 75 81 85 82 85 98 112 108 101
246 241 222 224 239 253 262 268 259 223 234 228 203 217 240 232 218 209 210 209 201 201 200 212 214 121 104 208 196 80 82 97 134 164 150 135 125 128 130 132 145 149 147 150 146 146 146 141 143 143 143 145 141 143 145 131 123 127 135 150 167 160 132 122 119 113 113 117 119 120 121 118 112 108 104 101 100 97 88 84 82 76 84 105 102 87 75 74 76 79 89 93 89 93 110 116 114
238 248 247 230 224 234 242 255 259 228 228 240 218 213 236 252 214 195 212 213 201 197 194 199 171 104 129 205 95 84 98 146 176 154 129 129 134 147 151 146 151 155 154 157 154 148 144 144 147 146 147 147 146 153 144 126 129 141 156 181 172 141 131 134 131 125 126 128 127 127 123 115 108 105 101 102 102 100 98 94 84 67 57 73 94 91 85 85 81 79 85 91 93 94 102 110 109
239 247 264 262 231 227 231 239 243 230 229 242 231 214 237 252 198 188 215 211 202 198 195 194 156 131 161 153 95 97 131 191 202 115 116 130 146 157 155 147 154 160 161 163 158 148 145 149 152 150 154 155 156 157 142 131 145 158 179 189 155 137 142 144 135 133 135 132 125 120 118 113 110 104 98 102 99 90 92 92 91 86 70 68 83 95 98 91 83 80 81 85 90 90 95 101 104
231 237 250 253 239 228 224 231 242 235 229 242 237 218 229 251 208 192 211 200 195 198 190 171 145 155 160 118 108 122 154 193 181 101 120 138 150 163 160 147 152 159 165 166 160 153 152 156 158 156 159 161 157 153 145 146 159 172 187 176 148 145 150 144 137 139 140 138 135 132 132 126 116 108 101 100 96 88 89 91 93 94 87 82 86 95 99 93 87 87 83 82 84 85 88 91 96
218 223 239 239 226 224 229 225 232 238 227 237 240 224 220 243 228 196 203 192 192 183 151 121 131 163 150 112 119 145 170 189 160 120 131 138 146 163 157 145 150 158 170 172 167 162 159 159 160 158 158 160 156 153 154 158 164 175 182 163 151 151 150 145 143 145 147 148 149 143 137 129 119 116 111 107 104 98 96 97 96 96 94 90 88 89 94 96 94 92 90 86 85 85 86 88 91
221 212 225 239 219 209 228 222 218 233 229 228 239 235 220 228 225 159 104 68 67 91 130 154 173 174 149 123 125 150 189 191 158 128 119 120 131 138 131 147 161 167 179 179 172 169 164 160 160 158 158 159 159 159 160 162 166 171 168 159 155 152 150 149 148 151 151 153 154 147 142 139 134 126 119 115 111 107 104 102 99 98 98 96 93 89 93 102 100 94 92 90 88 89 89 89 88
228 225 218 226 221 214 222 226 227 229 228 225 225 243 233 144 81 97 99 86 63 45 76 163 171 166 158 140 134 153 199 195 138 107 105 116 128 128 147 175 177 175 182 179 169 166 159 158 160 158 157 160 162 162 161 163 165 163 159 159 158 153 151 151 151 153 153 154 156 155 154 149 139 132 128 122 114 111 107 103 102 101 99 97 94 87 88 96 98 95 93 92 91 91 92 91 87
211 226 236 230 223 235 228 225 244 244 250 238 212 200 212 157 100 87 95 97 84 63 64 97 121 142 166 157 143 154 181 180 117 103 115 132 145 158 173 184 178 167 169 163 155 160 156 158 162 159 159 164 165 164 163 166 166 161 159 161 158 154 153 152 152 154 155 156 158 161 158 148 142 138 133 124 118 115 110 106 104 103 101 99 97 92 90 93 95 97 95 93 92 91 92 91 87
206 214 232 235 215 229 238 229 251 297 316 277 218 177 82 133 139 96 98 105 99 93 85 74 69 80 117 147 149 158 166 138 98 110 129 136 150 165 172 181 174 151 149 146 146 162 162 162 166 163 164 167 165 165 166 168 167 161 160 161 159 157 156 152 150 153 155 157 161 163 154 148 148 144 136 130 124 118 113 110 108 107 104 102 102 99 96 95 95 97 97 95 94 94 93 91 88
255 227 226 230 216 205 208 225 190 139 249 251 166 103 85 151 160 123 126 130 117 103 81 66 59 62 69 110 140 164 145 116 110 131 141 141 152 160 170 189 179 153 145 149 153 162 165 171 173 167 167 167 165 165 165 165 165 160 157 160 161 157 154 151 150 151 156 158 161 161 154 152 153 148 143 137 130 124 120 117 114 112 109 105 103 101 97 95 94 94 95 95 95 95 94 93 92
224 247 265 287 244 201 150 215 200 191 240 228 164 164 178 202 182 143 150 143 118 95 78 62 47 64 66 79 111 114 99 100 111 118 121 132 145 162 183 186 168 158 171 178 170 165 164 174 181 176 172 169 166 166 163 161 161 159 156 158 161 156 148 147 148 150 156 158 159 158 155 157 155 152 150 146 140 134 127 124 119 115 113 110 107 103 101 99 96 94 94 95 96 97 96 94 94
231 237 328 321 268 212 186 220 218 216 238 242 214 204 192 225 169 143 146 129 112 107 98 81 45 49 73 72 86 84 84 92 100 106 124 163 163 172 181 166 145 151 171 180 178 170 165 168 174 176 176 172 168 166 161 156 155 156 158 159 162 154 144 144 148 153 157 157 159 160 159 163 162 160 159 155 150 142 134 131 127 122 119 117 112 107 105 102 99 97 96 96 98 98 99 98 96
236 234 211 215 214 210 233 261 246 234 231 233 233 217 130 20 26 131 121 113 120 127 114 102 63 320 24 59 61 66 83 100 105 129 162 172 163 163 159 143 137 147 162 169 173 173 168 167 168 173 182 182 172 160 153 150 150 154 159 164 162 150 146 152 154 157 159 158 163 167 167 169 168 167 167 163 157 151 145 140 135 131 126 122 119 114 112 108 104 104 101 102 103 99 99 100 98
229 230 226 225 211 192 198 229 255 257 248 234 245 232 82 22 4 117 118 122 134 134 128 128 153 229 258 85 74 59 66 99 124 157 161 150 143 136 128 128 131 138 149 156 164 170 168 167 169 172 178 178 167 155 151 151 153 156 159 164 162 153 154 162 163 163 163 162 165 170 174 175 172 174 173 169 167 161 156 150 145 142 137 133 130 124 119 115 113 115 109 105 104 102 104 104 101
235 227 226 232 232 217 211 226 238 249 260 267 258 173 84 50 65 114 125 139 137 128 128 129 140 169 176 148 124 109 115 196 169 152 146 140 138 132 126 124 123 128 138 143 146 152 154 157 163 164 163 163 159 157 158 157 159 162 165 168 169 165 162 166 170 168 164 166 169 171 176 177 176 179 176 175 177 172 166 161 154 150 147 144 140 133 130 129 124 121 115 110 110 110 111 109 105